DW4362 Weather Reports


time (UTC)temp
F
wind
direction
speed
knots
gust
knots
rain 1hr
in
rain 24hr
in
rain mn
in
humidity
%
barometer
mb
20260502214644 72 360 0.0 0.0 0.00 2.35 1.00 54 1012.1
20260502213144 71 6 2.6 4.3 0.00 2.35 1.00 55 1012.1
20260502211645 72 344 4.3 5.2 0.00 2.35 1.00 54 1012.1
20260502210144 72 82 5.2 5.2 0.00 2.35 1.00 56 1012.1
20260502203144 72 323 2.6 4.3 0.00 2.35 1.00 60 1012.1
20260502201643 71 247 1.7 2.6 0.00 2.35 1.00 61 1012.3
20260502200144 72 283 0.0 4.3 0.00 2.35 1.00 58 1012.4
20260502194643 72 343 4.3 7.0 0.00 2.35 1.00 60 1012.5
20260502193143 71 358 1.7 4.3 0.00 2.35 1.00 61 1012.7
20260502191643 70 352 5.2 5.2 0.00 2.36 1.00 62 1012.8
20260502190142 69 348 2.6 2.6 0.00 2.36 1.00 63 1013.1
20260502184642 71 153 0.0 2.6 0.00 2.36 1.00 65 1013.1
20260502183142 70 291 1.7 2.6 0.00 2.36 1.00 63 1012.9
20260502181642 70 347 2.6 5.2 0.00 2.36 1.00 63 1012.9
20260502180141 69 330 0.0 2.6 0.00 2.36 1.00 67 1013.0
20260502170140 66 10 2.6 4.3 0.01 2.36 1.00 75 1012.9
20260502163139 65 356 1.7 2.6 0.00 2.35 0.99 82 1013.1
20260502161639 64 351 2.6 2.6 0.00 2.35 0.99 86 1013.2
20260502160139 63 93 0.0 4.3 0.00 2.35 0.99 87 1013.3
20260502151638 57 332 1.7 2.6 0.00 2.35 0.99 96 1013.0
20260502150138 57 290 0.0 0.0 0.00 2.35 0.99 95 1012.9
20260502130135 53 21 5.2 5.2 0.00 2.36 0.99 95 1011.9
20260502123135 53 354 0.0 0.0 0.03 2.37 0.99 95 1011.4
20260502121635 53 330 0.0 0.0 0.08 2.37 0.99 95 1011.2
20260502120204 53 6 1.7 4.3 0.08 2.37 0.99 95 1011.2
20260502113204 53 335 0.0 4.3 0.05 2.34 0.96 95 1010.8
20260502111704 53 15 0.0 1.7 0.09 2.29 0.91 95 1011.2
20260502110203 53 15 0.0 2.6 0.14 2.29 0.91 95 1010.5
20260502104706 53 109 1.7 2.6 0.15 2.29 0.91 95 1010.6
20260502101703 54 1 0.0 0.0 0.07 2.20 0.82 95 1011.6
20260502090202 55 16 1.7 2.6 0.23 2.11 0.73 95 1009.5
20260502070200 55 103 0.0 0.0 0.26 1.67 0.29 95 1009.4
20260502064659 54 264 0.0 0.0 0.21 1.59 0.21 95 1010.4
20260502063159 55 108 0.0 0.0 0.14 1.52 0.14 95 1010.8
20260502060159 55 267 1.7 1.7 0.03 1.41 0.03 95 1010.3
20260502054658 54 348 1.7 4.3 0.00 1.38 0.00 95 1010.9
20260502053158 54 4 0.0 0.0 0.00 1.38 0.00 95 1010.9
20260502050157 54 266 0.0 0.0 0.04 1.38 0.00 95 1011.1
20260502043156 54 331 1.7 2.6 0.08 1.38 1.38 95 1011.2
20260502040156 54 159 0.0 0.0 0.07 1.34 1.34 95 1011.9
20260502033155 54 64 0.0 1.7 0.27 1.30 1.30 95 1012.2
20260502031656 54 353 0.0 1.7 0.29 1.29 1.29 95 1012.7
20260502030155 54 34 0.0 1.7 0.30 1.27 1.27 95 1013.1
20260502024655 54 353 0.0 0.0 0.21 1.18 1.18 95 1012.4
20260502023155 54 230 0.0 0.0 0.09 1.03 1.03 95 1012.0
20260502021654 54 335 0.0 1.7 0.09 1.00 1.00 95 1011.0
20260502020154 55 22 1.7 5.2 0.07 0.97 0.97 95 1010.6
20260502014654 55 349 2.6 4.3 0.14 0.97 0.97 95 1011.0
20260502013153 56 24 0.0 1.7 0.24 0.94 0.94 95 1011.5
20260502011653 56 214 0.0 1.7 0.28 0.91 0.91 95 1010.9
20260502010153 56 346 0.0 0.0 0.42 0.90 0.90 95 1011.7
20260502004653 56 210 0.0 1.7 0.65 0.83 0.83 95 1011.7
20260502003152 56 288 0.0 0.0 0.61 0.70 0.70 95 1011.0
20260502001652 56 352 0.0 2.6 0.56 0.63 0.63 95 1010.2
20260502000152 57 352 4.3 4.3 0.42 0.48 0.48 95 1010.1
20260501234652 58 307 0.0 5.2 0.14 0.18 0.18 95 1010.2
20260501233152 59 336 1.7 4.3 0.05 0.09 0.09 95 1009.9
20260501230151 61 342 0.0 0.0 0.02 0.06 0.06 94 1010.3
20260501224651 62 1 1.7 1.7 0.01 0.04 0.04 94 1009.9
20260501223151 62 5 1.7 1.7 0.01 0.04 0.04 94 1010.1
20260501221651 63 340 0.0 2.6 0.01 0.04 0.04 93 1010.0